Madison, SD

2:19 AM CST on December 06, 2019 (GMT -0600)
Madison Municipal

Weather History for KMDS - October, 2019

Change the Weather History Date:

Friday, October 11, 2019

  Actual Average Record
Temperature  
Mean Temperature 30 °F -  
Max Temperature 32 °F 62 °F 86 °F (2015)
Min Temperature 28 °F 38 °F 26 °F (2014)
Degree Days  
Heating Degree Days 35    
Moisture  
Dew Point 29 °F    
Average Humidity 95    
Maximum Humidity 100    
Minimum Humidity 75    
Precipitation  
Precipitation 3.99 in - - ()
Sea Level Pressure  
Sea Level Pressure 29.90 in    
Wind  
Wind Speed 22 mph ()    
Max Wind Speed 33 mph    
Max Gust Speed 44 mph    
Visibility 8.0 miles    
Events Rain , Snow    
Averages and records for this station are not official NWS values.
T = Trace of Precipitation, MM = Missing Value Source: Averaged Metar Reports

Daily Weather History Graph

Daily Weather History Graph

Search for Another Location

Airport or City:

Astronomy

Oct. 11, 2019 Rise Set
Actual Time 7:37 AM CDT 6:51 PM CDT
Civil Twilight 7:08 AM CDT 7:20 PM CDT
Nautical Twilight 6:35 AM CDT 7:53 PM CDT
Astronomical Twilight 6:01 AM CDT 8:27 PM CDT
Moon 6:27 PM CDT (10/11) 5:11 AM CDT (10/11)
Length of Visible Light 12h 11m
Length of Day
11h 13m
Waxing Gibbous, 96% of the Moon is Illuminated
Oct 11
Waxing Gibbous
Oct 13
Full
Oct 21
Last Quarter
Oct 27
New
Nov 4
First Quarter

Hourly Weather History & Observations

Time (CDT) Temp. Windchill Dew Point Humidity Pressure Visibility Wind Dir Wind Speed Gust Speed Precip Events Conditions
12:15 AM 32.0 °F 19.8 °F 32.0 °F 100% 29.90 in 5.0 mi NW 20.7 mph 29.9 mph N/A Snow Light Snow
12:35 AM 32.0 °F 19.2 °F 32.0 °F 100% 29.91 in 5.0 mi NW 23.0 mph 32.2 mph 0.02 in Snow Light Snow
12:40 AM 32.0 °F 19.5 °F 32.0 °F 100% 29.90 in 8.0 mi NW 21.9 mph 32.2 mph 0.02 in Rain Light Rain
12:55 AM 32.0 °F 19.2 °F 32.0 °F 100% 29.91 in 5.0 mi WNW 23.0 mph 31.1 mph 0.04 in Snow Light Snow
1:15 AM 32.0 °F 18.9 °F 32.0 °F 100% 29.91 in 10.0 mi NW 24.2 mph 33.4 mph N/A Rain Light Rain
1:35 AM 32.0 °F 19.5 °F 32.0 °F 100% 29.90 in 10.0 mi WNW 21.9 mph 35.7 mph N/A Rain Light Rain
1:40 AM 32.0 °F 18.9 °F 32.0 °F 100% 29.91 in 10.0 mi NW 24.2 mph 35.7 mph N/A Rain Light Rain
1:55 AM 32.0 °F 18.9 °F 32.0 °F 100% 29.90 in 10.0 mi WNW 24.2 mph 32.2 mph N/A   Overcast
2:00 AM 32.0 °F 19.5 °F 32.0 °F 100% 29.90 in 10.0 mi NW 21.9 mph 32.2 mph N/A   Overcast
2:15 AM 30.2 °F 16.5 °F 30.2 °F 100% 29.90 in 6.0 mi NW 24.2 mph 38.0 mph N/A Rain Light Freezing Rain
2:35 AM 30.2 °F 15.4 °F 30.2 °F 100% 29.91 in 10.0 mi WNW 28.8 mph 38.0 mph N/A   Overcast
2:40 AM 30.2 °F 15.9 °F 30.2 °F 100% 29.91 in 10.0 mi NW 26.5 mph 38.0 mph N/A   Overcast
2:55 AM 30.2 °F 16.2 °F 30.2 °F 100% 29.90 in 10.0 mi WNW 25.3 mph 33.4 mph N/A   Overcast
3:15 AM 30.2 °F 16.2 °F 30.2 °F 100% 29.90 in 10.0 mi WNW 25.3 mph 35.7 mph N/A   Overcast
3:35 AM 30.2 °F 16.2 °F 30.2 °F 100% 29.90 in 10.0 mi NW 25.3 mph 40.3 mph N/A   Overcast
3:40 AM 30.2 °F 15.9 °F 30.2 °F 100% 29.90 in 10.0 mi WNW 26.5 mph 40.3 mph N/A   Overcast
3:55 AM 28.4 °F 13.8 °F 28.4 °F 100% 29.90 in 10.0 mi NW 25.3 mph 33.4 mph N/A Rain Light Freezing Rain
4:00 AM 28.4 °F 14.1 °F 28.4 °F 100% 29.90 in 10.0 mi WNW 24.2 mph 33.4 mph N/A Rain Light Freezing Rain
4:15 AM 28.4 °F 14.1 °F 28.4 °F 100% 29.90 in 10.0 mi WNW 24.2 mph 34.5 mph N/A   Overcast
4:35 AM 28.4 °F 15.4 °F 28.4 °F 100% 29.90 in 10.0 mi NW 19.6 mph 31.1 mph N/A Rain Light Freezing Rain
4:55 AM 28.4 °F 15.4 °F 28.4 °F 100% 29.91 in 10.0 mi WNW 19.6 mph 28.8 mph N/A   Overcast
5:00 AM 28.4 °F 14.7 °F 28.4 °F 100% 29.91 in 10.0 mi WNW 21.9 mph 27.6 mph N/A   Overcast
5:15 AM 28.4 °F 15.4 °F 28.4 °F 100% 29.91 in 10.0 mi WNW 19.6 mph 31.1 mph N/A   Overcast
5:20 AM 28.4 °F 15.4 °F 28.4 °F 100% 29.91 in 10.0 mi WNW 19.6 mph 31.1 mph N/A   Overcast
5:35 AM 28.4 °F 15.4 °F 28.4 °F 100% 29.91 in 10.0 mi WNW 19.6 mph 32.2 mph N/A   Overcast
5:40 AM 28.4 °F 14.4 °F 28.4 °F 100% 29.91 in 10.0 mi WNW 23.0 mph 33.4 mph N/A   Overcast
5:55 AM 28.4 °F 14.1 °F 28.4 °F 100% 29.91 in 10.0 mi West 24.2 mph 28.8 mph N/A   Overcast
6:00 AM 28.4 °F 14.7 °F 28.4 °F 100% 29.91 in 10.0 mi WNW 21.9 mph 28.8 mph N/A   Overcast
6:15 AM 28.4 °F 15.4 °F 28.4 °F 100% 29.91 in 10.0 mi WNW 19.6 mph 26.5 mph N/A   Overcast
6:35 AM 28.4 °F 16.2 °F 28.4 °F 100% 29.91 in 10.0 mi WNW 17.3 mph 28.8 mph N/A Snow Light Snow
6:55 AM 28.4 °F 15.1 °F 28.4 °F 100% 29.91 in 10.0 mi West 20.7 mph 28.8 mph 0.02 in Snow Light Snow
7:00 AM 28.4 °F 15.4 °F 28.4 °F 100% 29.91 in 10.0 mi WNW 19.6 mph 28.8 mph 0.03 in Snow Light Snow
7:15 AM 28.4 °F 15.4 °F 28.4 °F 100% 29.90 in 10.0 mi WNW 19.6 mph 29.9 mph 0.02 in Snow Light Snow
7:20 AM 28.4 °F 15.8 °F 28.4 °F 100% 29.90 in 10.0 mi WNW 18.4 mph 26.5 mph 0.02 in Snow Light Snow
7:35 AM 28.4 °F 14.1 °F 28.4 °F 100% 29.90 in 10.0 mi West 24.2 mph 29.9 mph 0.03 in Snow Light Snow
7:55 AM 28.4 °F 14.4 °F 28.4 °F 100% 29.90 in 10.0 mi WNW 23.0 mph 33.4 mph 0.06 in Snow Light Snow
8:15 AM 28.4 °F 14.4 °F 28.4 °F 100% 29.89 in 10.0 mi West 23.0 mph 28.8 mph 0.02 in Snow Light Snow
8:20 AM 28.4 °F 16.2 °F 28.4 °F 100% 29.90 in 10.0 mi West 17.3 mph 28.8 mph 0.03 in Snow Light Snow
8:35 AM 28.4 °F 15.1 °F 28.4 °F 100% 29.89 in 5.0 mi West 20.7 mph 29.9 mph 0.08 in Snow Light Snow
8:55 AM 28.4 °F 15.4 °F 28.4 °F 100% 29.90 in 4.0 mi West 19.6 mph 28.8 mph 0.18 in Snow Light Snow
9:15 AM 28.4 °F 15.1 °F 28.4 °F 100% 29.90 in 9.0 mi West 20.7 mph 32.2 mph 0.01 in Snow Light Snow
9:20 AM 28.4 °F 13.3 °F 28.4 °F 100% 29.89 in 8.0 mi West 27.6 mph 38.0 mph 0.01 in Snow Light Snow
9:35 AM 28.4 °F 14.7 °F 28.4 °F 100% 29.89 in 10.0 mi West 21.9 mph 32.2 mph 0.03 in Snow Light Snow
9:40 AM 28.4 °F 14.4 °F 28.4 °F 100% 29.90 in 7.0 mi West 23.0 mph 32.2 mph 0.07 in Snow Light Snow
9:55 AM 28.4 °F 15.4 °F 28.4 °F 100% 29.90 in 10.0 mi West 19.6 mph 39.1 mph 0.14 in Snow Light Snow
10:15 AM 28.4 °F 14.4 °F 28.4 °F 100% 29.90 in 10.0 mi West 23.0 mph 32.2 mph 0.01 in Snow Light Snow
10:35 AM 30.2 °F 15.2 °F 30.2 °F 100% 29.90 in 10.0 mi West 29.9 mph 36.8 mph 0.05 in Snow Light Snow
10:40 AM 30.2 °F 16.8 °F 30.2 °F 100% 29.90 in 10.0 mi West 23.0 mph 36.8 mph 0.07 in Snow Light Snow
10:55 AM 30.2 °F 18.1 °F 30.2 °F 100% 29.90 in 3.0 mi West 18.4 mph 28.8 mph 0.17 in Snow Light Snow
11:15 AM 30.2 °F 15.9 °F 30.2 °F 100% 29.90 in 9.0 mi West 26.5 mph 36.8 mph 0.10 in Snow Light Snow
11:20 AM 30.2 °F 15.9 °F 30.2 °F 100% 29.90 in 10.0 mi WNW 26.5 mph 36.8 mph 0.14 in Snow Light Snow
11:35 AM 30.2 °F 15.9 °F 30.2 °F 100% 29.90 in 3.0 mi WNW 26.5 mph 40.3 mph 0.26 in Snow Light Snow
12:15 PM 30.2 °F 15.7 °F 30.2 °F 100% 29.90 in 4.0 mi West 27.6 mph 35.7 mph 0.17 in Snow Light Snow
12:35 PM 30.2 °F 16.2 °F 30.2 °F 100% 29.90 in 3.0 mi WNW 25.3 mph 33.4 mph 0.36 in Snow Light Snow
12:40 PM 30.2 °F 15.9 °F 30.2 °F 100% 29.90 in 4.0 mi West 26.5 mph 40.3 mph 0.41 in Snow Light Snow
12:55 PM 30.2 °F 15.7 °F 30.2 °F 100% 29.90 in 6.0 mi WNW 27.6 mph 36.8 mph 0.49 in Snow Light Snow
1:00 PM 30.2 °F 16.8 °F 30.2 °F 100% 29.90 in 3.0 mi West 23.0 mph 36.8 mph 0.56 in Snow Light Snow
1:15 PM 30.2 °F 15.9 °F 30.2 °F 100% 29.90 in 2.0 mi WNW 26.5 mph 34.5 mph 0.17 in Snow Light Snow
1:20 PM 30.2 °F 16.5 °F 30.2 °F 100% 29.90 in 1.2 mi WNW 24.2 mph 34.5 mph 0.27 in Snow Light Snow
1:35 PM 30.2 °F 17.8 °F 30.2 °F 100% 29.90 in 1.5 mi West 19.6 mph 32.2 mph 0.45 in Snow Light Snow
2:15 PM 30.2 °F 15.7 °F 30.2 °F 100% 29.90 in 1.8 mi WNW 27.6 mph 43.7 mph 0.15 in Snow Light Snow
2:20 PM 30.2 °F 15.2 °F 30.2 °F 100% 29.90 in 2.5 mi WNW 29.9 mph 43.7 mph 0.19 in Snow Light Snow
2:35 PM 30.2 °F 16.2 °F 30.2 °F 100% 29.90 in 4.0 mi WNW 25.3 mph 36.8 mph 0.34 in Snow Light Snow
2:55 PM 30.2 °F 16.8 °F 30.2 °F 100% 29.90 in 3.0 mi WNW 23.0 mph 33.4 mph 0.59 in Snow Light Snow
3:15 PM 30.2 °F 16.5 °F 30.2 °F 100% 29.90 in 2.5 mi WNW 24.2 mph 36.8 mph 0.23 in Snow Light Snow
3:35 PM 30.2 °F 15.7 °F 30.2 °F 100% 29.90 in 3.0 mi WNW 27.6 mph 43.7 mph 0.46 in Snow Light Snow
3:40 PM 30.2 °F 15.2 °F 30.2 °F 100% 29.90 in 7.0 mi WNW 29.9 mph 43.7 mph 0.51 in Snow Light Snow
3:55 PM 30.2 °F 15.7 °F 30.2 °F 100% 29.90 in 4.0 mi WNW 27.6 mph 41.4 mph 0.62 in Snow Light Snow
4:15 PM 30.2 °F 14.5 °F 30.2 °F 100% 29.91 in 2.0 mi West 33.4 mph 41.4 mph 0.18 in Snow Light Snow
4:20 PM 30.2 °F 14.9 °F 30.2 °F 100% 29.91 in 1.5 mi WNW 31.1 mph 42.6 mph 0.27 in Snow Light Snow
4:35 PM 30.2 °F 15.4 °F 30.2 °F 100% 29.91 in 2.0 mi West 28.8 mph 38.0 mph 0.50 in Snow Light Snow
4:40 PM 30.2 °F 17.8 °F 30.2 °F 100% 29.92 in 2.5 mi WNW 19.6 mph 38.0 mph 0.55 in Snow Light Snow
4:55 PM 30.2 °F 16.8 °F 30.2 °F 100% 29.92 in 1.2 mi West 23.0 mph 31.1 mph 0.65 in Snow Light Snow
5:15 PM 30.2 °F 16.8 °F 30.2 °F 100% 29.92 in 2.5 mi West 23.0 mph 34.5 mph 0.11 in Snow Light Snow
5:35 PM 30.2 °F 16.2 °F 30.2 °F 100% 29.91 in 10.0 mi West 25.3 mph 35.7 mph 0.18 in Snow Light Snow
5:40 PM 30.2 °F 16.2 °F 30.2 °F 100% 29.91 in 10.0 mi West 25.3 mph 31.1 mph 0.19 in Snow Light Snow
5:55 PM 32.0 °F 18.1 °F 28.4 °F 87% 29.91 in 10.0 mi WNW 27.6 mph 40.3 mph 0.21 in Snow Light Snow
6:15 PM 32.0 °F 18.4 °F 26.6 °F 80% 29.91 in 10.0 mi West 26.5 mph 38.0 mph N/A   Mostly Cloudy
6:35 PM 32.0 °F 19.2 °F 24.8 °F 75% 29.91 in 10.0 mi West 23.0 mph 36.8 mph N/A   Overcast
6:40 PM 32.0 °F 19.2 °F 24.8 °F 75% 29.91 in 10.0 mi West 23.0 mph 35.7 mph N/A   Overcast
6:55 PM 32.0 °F 19.8 °F 24.8 °F 75% 29.91 in 10.0 mi West 20.7 mph 29.9 mph N/A   Overcast
7:00 PM 32.0 °F 19.2 °F 24.8 °F 75% 29.91 in 10.0 mi West 23.0 mph 34.5 mph N/A   Overcast
7:15 PM 32.0 °F 19.5 °F 24.8 °F 75% 29.91 in 10.0 mi West 21.9 mph 39.1 mph N/A Rain Light Rain
7:35 PM 32.0 °F 19.8 °F 24.8 °F 75% 29.91 in 10.0 mi West 20.7 mph 34.5 mph N/A   Overcast
7:55 PM 32.0 °F 18.6 °F 24.8 °F 75% 29.91 in 10.0 mi West 25.3 mph 29.9 mph N/A   Overcast
8:00 PM 32.0 °F 19.5 °F 24.8 °F 75% 29.91 in 10.0 mi West 21.9 mph 33.4 mph N/A   Overcast
8:15 PM 32.0 °F 19.5 °F 24.8 °F 75% 29.90 in 10.0 mi West 21.9 mph 32.2 mph N/A   Overcast
8:20 PM 32.0 °F 20.5 °F 24.8 °F 75% 29.91 in 10.0 mi West 18.4 mph 28.8 mph N/A   Overcast
8:35 PM 32.0 °F 19.2 °F 24.8 °F 75% 29.90 in 10.0 mi West 23.0 mph 31.1 mph N/A   Mostly Cloudy
8:55 PM 30.2 °F 17.4 °F 24.8 °F 80% 29.89 in 10.0 mi West 20.7 mph 33.4 mph N/A   Partly Cloudy
9:15 PM 30.2 °F 17.1 °F 24.8 °F 80% 29.89 in 10.0 mi West 21.9 mph 32.2 mph N/A   Clear
9:20 PM 30.2 °F 18.1 °F 24.8 °F 80% 29.89 in 10.0 mi West 18.4 mph 31.1 mph N/A   Clear
9:35 PM 30.2 °F 17.4 °F 24.8 °F 80% 29.89 in 10.0 mi West 20.7 mph 32.2 mph N/A   Clear
9:40 PM 30.2 °F 17.4 °F 24.8 °F 80% 29.89 in 10.0 mi West 20.7 mph 32.2 mph N/A   Clear
9:55 PM 30.2 °F 17.4 °F 24.8 °F 80% 29.89 in 10.0 mi West 20.7 mph 31.1 mph N/A   Clear
10:15 PM 28.4 °F 14.7 °F 24.8 °F 86% 29.88 in 10.0 mi West 21.9 mph 28.8 mph N/A   Clear
10:20 PM 28.4 °F 15.4 °F 24.8 °F 86% 29.88 in 10.0 mi West 19.6 mph 27.6 mph N/A   Clear
10:35 PM 28.4 °F 16.2 °F 26.6 °F 93% 29.88 in 10.0 mi West 17.3 mph 28.8 mph N/A   Clear
10:40 PM 28.4 °F 16.2 °F 26.6 °F 93% 29.88 in 10.0 mi West 17.3 mph 28.8 mph N/A   Clear
10:55 PM 28.4 °F 15.8 °F 26.6 °F 93% 29.87 in 10.0 mi West 18.4 mph 24.2 mph N/A   Clear
11:15 PM 28.4 °F 15.4 °F 26.6 °F 93% 29.86 in 10.0 mi West 19.6 mph 26.5 mph N/A   Clear
11:20 PM 28.4 °F 16.2 °F 26.6 °F 93% 29.86 in 10.0 mi West 17.3 mph 26.5 mph N/A   Clear
11:35 PM 28.4 °F 16.2 °F 26.6 °F 93% 29.85 in 10.0 mi West 17.3 mph 25.3 mph N/A   Clear
11:40 PM 28.4 °F 16.6 °F 26.6 °F 93% 29.85 in 10.0 mi West 16.1 mph 24.2 mph N/A   Clear
11:55 PM 28.4 °F 17.0 °F 26.6 °F 93% 29.85 in 10.0 mi West 15.0 mph 26.5 mph N/A   Clear